TimePDT,TemperatureF,Dew PointF,Humidity,Sea Level PressureIn,VisibilityMPH,Wind Direction,Wind SpeedMPH,Gust SpeedMPH,PrecipitationIn,Events,Conditions,WindDirDegrees,DateUTC
12:54 AM,50.0,48.0,93,30.18,10.0,Calm,Calm,-,N/A,,Clear,0,2013-05-10 07:54:00
1:54 AM,48.0,46.0,93,30.20,8.0,Calm,Calm,-,N/A,,Clear,0,2013-05-10 08:54:00
2:50 AM,46.4,44.6,93,30.20,1.2,Calm,Calm,-,N/A,,Clear,0,2013-05-10 09:50:00
2:54 AM,46.0,45.0,96,30.20,0.8,Calm,Calm,-,N/A,,Clear,0,2013-05-10 09:54:00
3:00 AM,48.9,48.0,97,30.19,1.8,Calm,Calm,-,N/A,,Clear,0,2013-05-10 10:00:00
3:02 AM,48.9,48.0,97,30.19,4.0,Calm,Calm,-,N/A,,Clear,0,2013-05-10 10:02:00
3:41 AM,46.0,45.0,96,30.20,2.0,Calm,Calm,-,N/A,,Partly Cloudy,0,2013-05-10 10:41:00
3:43 AM,46.9,45.0,93,30.20,1.0,Calm,Calm,-,N/A,,Mist,0,2013-05-10 10:43:00
3:50 AM,46.4,46.4,100,30.20,0.8,Calm,Calm,-,N/A,,Mist,0,2013-05-10 10:50:00
3:52 AM,48.2,46.4,93,30.20,1.5,Calm,Calm,-,N/A,,Partly Cloudy,0,2013-05-10 10:52:00
3:54 AM,48.0,46.0,93,30.20,5.0,Calm,Calm,-,N/A,,Partly Cloudy,0,2013-05-10 10:54:00
4:20 AM,46.0,45.0,96,30.19,1.2,Calm,Calm,-,N/A,,Scattered Clouds,0,2013-05-10 11:20:00
4:22 AM,46.0,45.0,96,30.19,0.8,Calm,Calm,-,N/A,,Mist,0,2013-05-10 11:22:00
4:32 AM,46.0,45.0,96,30.19,1.2,Calm,Calm,-,N/A,,Scattered Clouds,0,2013-05-10 11:32:00
4:34 AM,46.0,45.0,96,30.19,2.0,Calm,Calm,-,N/A,,Scattered Clouds,0,2013-05-10 11:34:00
4:37 AM,46.0,45.0,96,30.19,1.0,Calm,Calm,-,N/A,,Mist,0,2013-05-10 11:37:00
4:41 AM,44.1,44.1,100,30.19,0.8,Calm,Calm,-,N/A,,Mist,0,2013-05-10 11:41:00
4:52 AM,44.6,44.6,100,30.19,0.2,Calm,Calm,-,N/A,Fog,Fog,0,2013-05-10 11:52:00
4:54 AM,42.8,42.8,100,30.19,0.5,Calm,Calm,-,N/A,Fog,Fog,0,2013-05-10 11:54:00
5:01 AM,45.0,44.1,97,30.19,1.5,Calm,Calm,-,N/A,,Overcast,0,2013-05-10 12:01:00
5:21 AM,44.1,44.1,100,30.19,1.2,Calm,Calm,-,N/A,,Scattered Clouds,0,2013-05-10 12:21:00
5:28 AM,44.1,44.1,100,30.19,1.0,Calm,Calm,-,N/A,,Mist,0,2013-05-10 12:28:00
5:39 AM,44.1,43.0,96,30.19,1.8,Calm,Calm,-,N/A,,Partly Cloudy,0,2013-05-10 12:39:00
5:46 AM,44.1,44.1,100,30.19,3.0,Calm,Calm,-,N/A,,Clear,0,2013-05-10 12:46:00
5:54 AM,42.8,42.8,100,30.20,7.0,SSW,3.5,-,N/A,,Partly Cloudy,210,2013-05-10 12:54:00
6:00 AM,43.0,42.1,97,30.20,1.2,Calm,Calm,-,N/A,,Partly Cloudy,0,2013-05-10 13:00:00
6:08 AM,44.1,44.1,100,30.19,0.5,Calm,Calm,-,N/A,Fog,Fog,0,2013-05-10 13:08:00
6:12 AM,44.1,43.0,96,30.19,1.5,Calm,Calm,-,N/A,,Clear,0,2013-05-10 13:12:00
6:14 AM,44.1,43.0,96,30.19,2.5,Calm,Calm,-,N/A,,Partly Cloudy,0,2013-05-10 13:14:00
6:21 AM,44.1,44.1,100,30.19,4.0,Calm,Calm,-,N/A,,Partly Cloudy,0,2013-05-10 13:21:00
6:54 AM,46.9,46.0,97,30.21,7.0,Calm,Calm,-,N/A,,Partly Cloudy,0,2013-05-10 13:54:00
7:54 AM,51.1,48.0,89,30.21,10.0,Calm,Calm,-,N/A,,Clear,0,2013-05-10 14:54:00
8:54 AM,55.9,50.0,80,30.22,9.0,Calm,Calm,-,N/A,,Clear,0,2013-05-10 15:54:00
9:54 AM,62.6,51.8,68,30.21,10.0,Calm,Calm,-,N/A,,Clear,0,2013-05-10 16:54:00
10:54 AM,66.0,52.0,60,30.20,10.0,Calm,Calm,-,N/A,,Clear,0,2013-05-10 17:54:00
11:54 AM,71.1,52.0,51,30.19,10.0,Calm,Calm,-,N/A,,Clear,0,2013-05-10 18:54:00
12:54 PM,73.9,53.1,48,30.18,10.0,North,3.5,-,N/A,,Clear,350,2013-05-10 19:54:00
1:54 PM,77.0,52.0,42,30.17,10.0,Calm,Calm,-,N/A,,Clear,0,2013-05-10 20:54:00
2:54 PM,80.1,53.1,39,30.15,10.0,Variable,3.5,-,N/A,,Clear,0,2013-05-10 21:54:00
3:54 PM,81.0,53.1,38,30.13,10.0,Calm,Calm,-,N/A,,Clear,0,2013-05-10 22:54:00
4:54 PM,82.0,55.0,39,30.12,10.0,ENE,4.6,-,N/A,,Clear,70,2013-05-10 23:54:00
5:54 PM,80.1,55.0,42,30.12,10.0,NE,8.1,-,N/A,,Clear,40,2013-05-11 00:54:00
6:54 PM,77.0,53.1,43,30.12,10.0,NNW,5.8,-,N/A,,Clear,340,2013-05-11 01:54:00
7:54 PM,73.0,54.0,51,30.12,10.0,NNE,5.8,-,N/A,,Clear,20,2013-05-11 02:54:00
8:54 PM,69.1,53.1,57,30.14,10.0,Calm,Calm,-,N/A,,Clear,0,2013-05-11 03:54:00
9:54 PM,64.9,53.1,65,30.16,10.0,Calm,Calm,-,N/A,,Clear,0,2013-05-11 04:54:00
10:54 PM,61.0,43.0,52,30.17,10.0,SE,3.5,-,N/A,,Clear,130,2013-05-11 05:54:00
11:54 PM,57.9,41.0,53,30.19,10.0,SSW,3.5,-,N/A,,Clear,210,2013-05-11 06:54:00